This demonstration page uses our WeatherBlox Daily Observations layout. Learn more.

Left ArrowRight Arrow

39.08367, -84.50855

Hourly Observations for August 2, 2017

Temp ( °F °C ) Dew Point ( °F °C ) Humidity (%) Winds ( mph kmh ) Pressure ( in mb ) Visibility ( mi km ) Precip ( " mm )
12:53 am 00:53 Clear 67 19.4 67 19.4 100 100 N N/A 30.08 1019 7 11.26538 N/A
1:53 am 01:53 Mostly Clear with Mist and Fog 66 18.9 66 18.9 100 100 N N/A 30.08 1019 5 8.0467 N/A
2:53 am 02:53 Clear with Mist and Fog 68 20 67 19.4 96 96 N N/A 30.06 1018 6 9.65604 N/A
3:26 am 03:26 Clear with Mist and Fog 66 18.9 66 18.9 100 100 NE 5 7 30.03 1017 2.5 4.02335 N/A
3:36 am 03:36 Clear with Mist and Fog 66 18.9 66 18.9 100 100 NE 5 7 30.03 1017 3 4.82802 N/A
3:53 am 03:53 Partly Cloudy with Mist and Fog 67 19.4 67 19.4 100 100 N N/A 30.04 1017 6 9.65604 N/A
4:35 am 04:35 Partly Cloudy with Mist and Fog 67 19.4 67 19.4 100 100 N N/A 30.03 1017 5 8.0467 N/A
4:53 am 04:53 Clear with Mist and Fog 67 19.4 67 19.4 100 100 N N/A 30.04 1017 5 8.0467 N/A
5:53 am 05:53 Partly Cloudy with Mist and Fog 68 20 68 20 100 100 N N/A 30.06 1018 6 9.65604 N/A
6:53 am 06:53 Partly Cloudy with Patchy Fog 66 18.9 66 18.9 100 100 N N/A 30.07 1018 6 9.65604 N/A
7:53 am 07:53 Sunny with Mist and Fog 68 20 68 20 100 100 N N/A 30.09 1019 6 9.65604 N/A
8:53 am 08:53 Sunny 72 22.2 69 20.6 91 91 N N/A 30.08 1019 9 14.48406 N/A
9:53 am 09:53 Cloudy 73 22.8 69 20.6 87 87 S 6 9 30.09 1019 10 16.0934 N/A
10:53 am 10:53 Cloudy 74 23.3 68 20 82 82 SSW 6 9 30.09 1019 10 16.0934 N/A
11:53 am 11:53 Mostly Cloudy 76 24.4 67 19.4 74 74 S 3 6 30.09 1019 10 16.0934 N/A
12:53 pm 12:53 Mostly Sunny 80 26.7 66 18.9 62 62 WSW 8 13 30.08 1019 10 16.0934 N/A
1:53 pm 13:53 Mostly Sunny 80 26.7 67 19.4 64 64 N N/A 30.06 1018 10 16.0934 N/A
2:53 pm 14:53 Mostly Sunny 83 28.3 68 20 61 61 undefined N/A 30.04 1017 10 16.0934 N/A
3:53 pm 15:53 Partly Cloudy 84 28.9 69 20.6 61 61 SSW 8 13 30.02 1017 10 16.0934 N/A
4:46 pm 16:46 Mostly Cloudy with Thunderstorms 77 25 67 19.4 71 71 SSW 10 17 30 1016 10 16.0934 N/A
4:53 pm 16:53 Mostly Cloudy with Thunderstorms 77 25 67 19.4 71 71 SSW 10 17 30.03 1017 10 16.0934 N/A
5:01 pm 17:01 Partly Cloudy 76 24.4 66 18.9 72 72 S 9 15 30 1016 10 16.0934 N/A
5:53 pm 17:53 Partly Cloudy 79 26.1 68 20 69 69 S 9 15 30.03 1017 10 16.0934 N/A
6:53 pm 18:53 Sunny 79 26.1 69 20.6 72 72 S 9 15 30.02 1017 10 16.0934 N/A
7:53 pm 19:53 Sunny 74 23.3 68 20 82 82 S 6 9 30.04 1017 10 16.0934 N/A
8:48 pm 20:48 Partly Cloudy with Nearby Thunderstorms 73 23 68 20 83 83 WSW 6 9 30.03 1017 10 16.0934 N/A
8:53 pm 20:53 Partly Cloudy with Thunderstorms 73 22.8 68 20 84 84 WSW 7 11 30.06 1018 10 16.0934 N/A
9:36 pm 21:36 Mostly Clear with Light Rain 73 22.8 68 20 84 84 N N/A 30.03 1017 10 16.0934 N/A
9:53 pm 21:53 Mostly Cloudy with Light Rain 71 21.7 69 20.6 94 94 S 6 9 30.05 1018 8 12.87472 0.01 0.254
10:53 pm 22:53 Clear 71 21.7 69 20.6 94 94 N N/A 30.06 1018 10 16.0934 0.02 0.508
11:53 pm 23:53 Clear 70 21.1 69 20.6 97 97 N N/A 30.07 1018 10 16.0934 N/A

Powered by AerisWeather